Flag for Canada Weather past 2 weeks in Montreal, Quebec, Canada

Now
34 °F

Passing clouds.


Feels Like: 25 °F
Forecast: 36 / 53 °F
Wind: 13 mph from West

Location: Montreal - Pierre Elliot Trudeau International Aiport

Current Time: Apr 25, 2015 at 3:31:04 AM

Latest Report: Apr 25, 2015 at 3:00 AM


Visibility: 15 mi

Pressure: 29.84 "Hg

Humidity: 65%

Dew point: 23 °F

Location of MontrealLocation

Historic Weather in Montreal — Graph

°F

Montreal temperature yesterday

Maximum temperature yesterday: 39 °F (at 12:00 AM)
Minimum temperature yesterday: 34 °F (at 6:00 AM)
Average temperature yesterday: 36 °F

Past Weeks' High & Low Weather Summary

 TemperatureHumidityPressure
High72 °F (Apr 13, 2:00 PM)100% (Apr 21, 9:00 AM)30.48 "Hg (Apr 21, 9:00 AM)
Low32 °F (Apr 16, 4:00 AM)11% (Apr 15, 5:00 PM)29.45 "Hg (Apr 10, 3:51 PM)
Average47 °F58%29.92 "Hg
* Reported Apr 10 2:00 AM — Apr 25 2:00 AM, Montreal, Weather by CustomWeather, © 2015

Note: Actual official high and low records may vary slightly from our data, if they occured in-between our weather recording intervals... More about our weather records

Advertising

Montreal weather history for previous 24 hours

 ConditionsComfort  
Time TempWeatherWind HumidityBarometerVisibility
2:00 AM
Sat, Apr 25
34 °FPassing clouds.13 mph65%29.84 "Hg15 mi
1:00 AM34 °FPartly cloudy.14 mph65%29.85 "Hg15 mi
12:00 AM34 °FPassing clouds.10 mph65%29.85 "Hg15 mi
11:00 PM
Fri, Apr 24
36 °FPassing clouds.14 mph60%29.86 "Hg15 mi
10:00 PM36 °FSnow flurries. Mostly cloudy.12 mph56%29.86 "Hg15 mi
9:00 PM36 °FSnow flurries. Overcast.15 mph56%29.87 "Hg15 mi
7:00 PM37 °FOvercast.15 mph48%29.84 "Hg30 mi
6:00 PM39 °FChilly.14 mph45%29.83 "Hg30 mi
5:00 PM39 °FOvercast.15 mph48%29.82 "Hg30 mi
4:00 PM39 °FOvercast.21 mph45%29.80 "Hg30 mi
3:00 PM39 °FOvercast.18 mph48%29.80 "Hg15 mi
2:00 PM37 °FOvercast.17 mph52%29.80 "Hg15 mi
1:00 PM36 °FOvercast.15 mph52%29.81 "Hg30 mi
12:00 PM36 °FOvercast.17 mph52%29.81 "Hg15 mi
11:00 AM36 °FOvercast.15 mph52%29.81 "Hg15 mi
10:00 AM34 °FOvercast.20 mph56%29.80 "Hg15 mi
9:00 AM34 °FPartly sunny.13 mph60%29.79 "Hg15 mi
8:00 AM34 °FPartly sunny.13 mph60%29.79 "Hg15 mi
7:00 AM34 °FPartly sunny.14 mph60%29.78 "Hg15 mi
6:00 AM34 °FOvercast.14 mph60%29.76 "Hg15 mi
5:00 AM36 °FPassing clouds.12 mph70%29.75 "Hg15 mi
4:00 AM36 °FLight snow. Mostly cloudy.14 mph75%29.74 "Hg15 mi
3:00 AM36 °FPassing clouds.15 mph75%29.72 "Hg15 mi
Weather by CustomWeather, © 2015

See weather overviewHow to use our weather pages